Location: Amsterdam
(30.7274°N, 84.4357°W)
Time: 14:03:22
(UTC+00:00)

Transit 2A Rocket - Pass Details

Date: 11 February 2026
Orbit: 583 x 900 km, 66.7° (Epoch: 6 March)

Event Time Altitude Azimuth Distance (km) Brightness Sun altitude
Rises 23:51:18 0° 242° (WSW) 3,445 10.2 -6.8°
Reaches altitude 10° 23:54:23 10° 258° (WSW) 2,541 9.5 -7.5°
Maximum altitude 23:58:46 21° 306° (NW) 1,904 7.6 -8.4°
Drops below altitude 10° 00:03:13 10° 354° (N) 2,576 7.7 -9.4°
Sets 00:06:23 0° 10° (N) 3,506 8.2 -10.0°
